CAPE
2 1 2 1 1 2 0 0 3 2 2 1 1 0 0 1 0 0 0 0 0 0 0 0 0 0 0 0 0 0 0 0 0 0 0 0 0 85 71 120 190 151 224 523 348
0 2 1 0 1 1 0 0 3 0 2 0 0 0 0 0 0 0 0 0 0 0 0 0 0 0 0 0 0 0 0 0 0 0 0 0 0 67 172 117 130 177 646 389 179
0 0 0 0 1 0 0 0 1 3 1 1 0 0 0 0 0 0 0 0 0 0 0 0 0 0 0 0 0 0 0 0 0 0 0 0 0 0 4 5 0 156 620 407 227
2 0 0 0 0 0 0 0 0 1 1 1 0 0 0 0 0 0 0 0 0 0 0 0 0 0 0 0 0 0 0 0 0 0 0 0 0 0 0 16 414 607 414 288 395
0 0 0 0 0 0 0 0 3 1 0 0 0 0 0 0 0 0 0 0 0 0 0 0 0 0 0 0 0 0 0 0 0 0 0 0 0 0 0 0 0 0 0 0 0
0 0 0 1 1 0 0 3 0 0 0 0 0 0 0 0 0 0 0 0 0 0 0 0 0 0 0 0 0 0 0 0 0 0 0 0 0 0 0 0 0 0 0 0 0
2 0 0 2 0 0 0 2 0 0 0 0 0 0 0 0 0 0 0 0 0 0 0 0 0 0 0 0 0 0 0 0 0 0 0 0 0 0 0 0 0 0 0 0 0
1 1 0 0 0 0 2 0 0 0 0 0 0 0 0 0 0 0 0 0 0 0 0 0 0 0 0 0 0 0 0 0 0 0 0 0 0 0 0 0 0 0 0 0 0
0 0 1 0 0 1 0 0 0 0 0 0 0 0 0 0 0 0 0 0 0 0 0 0 0 0 0 0 0 0 0 0 0 0 0 0 0 0 0 0 0 0 0 0 0
0 0 0 1 0 0 0 0 0 0 0 0 0 0 0 0 0 0 0 0 0 0 0 0 0 0 0 0 0 0 0 0 0 0 0 0 0 0 0 0 0 0 0 0 0
2 0 0 1 0 0 0 0 0 0 0 0 0 0 0 0 0 0 0 0 0 0 0 0 0 0 0 0 0 0 0 0 0 0 0 0 0 0 0 0 0 0 0 0 0
0 0 0 0 0 0 0 0 0 0 0 0 0 0 0 0 0 0 0 0 0 0 0 0 0 0 0 0 0 0 0 0 0 0 0 0 0 0 0 0 0 0 0 0 0
0 2 1 0 0 0 0 0 0 0 0 0 0 0 0 0 0 0 0 0 0 0 0 0 0 0 0 0 0 0 0 0 0 0 0 0 0 0 0 0 0 0 0 0 0
3 0 0 0 0 0 0 0 0 0 0 0 0 0 0 0 0 0 0 0 0 0 0 0 0 0 0 0 0 0 0 0 0 0 0 0 0 0 0 0 0 0 0 0 0
2 0 0 0 0 0 0 0 0 0 0 0 0 0 0 0 0 0 0 0 0 0 0 0 0 0 0 0 0 0 0 0 0 0 0 0 0 0 0 0 0 0 0 0 0
1 0 0 0 0 0 0 0 0 0 0 0 0 0 0 0 0 0 0 0 0 0 0 0 0 0 0 0 0 0 0 0 0 0 0 0 0 0 0 0 0 0 0 0 0
0 0 0 0 0 0 0 0 0 0 0 0 0 0 0 0 0 0 0 0 0 0 0 0 0 0 0 0 0 0 0 0 0 0 0 0 0 0 0 0 0 0 0 0 0
0 0 0 0 0 0 0 0 0 0 0 0 0 0 0 0 0 0 0 0 0 0 0 0 0 0 0 0 0 0 0 0 0 0 0 0 0 0 0 0 0 0 0 0 0
0 0 0 0 0 0 0 0 0 0 0 0 0 0 0 0 0 0 0 0 0 0 0 0 0 0 0 0 0 0 0 0 1 0 2 0 0 0 0 0 0 0 0 0 0
0 0 0 0 0 0 0 0 0 0 0 0 0 0 0 0 0 0 0 0 0 0 0 0 0 0 0 0 0 0 0 0 0 20 21 0 0 0 0 0 0 0 0 0 0
0 0 0 0 0 0 0 0 0 0 0 0 0 0 0 0 0 0 0 0 0 0 0 0 0 0 0 0 0 0 0 0 0 0 23 22 0 0 0 0 0 0 0 0 0
0 0 0 0 0 0 0 0 0 0 0 0 0 0 0 0 0 0 0 0 0 0 0 0 0 0 0 0 0 0 0 0 0 1 0 0 0 0 0 0 0 0 0 0 0
0 0 0 0 0 0 0 0 0 0 0 0 0 0 0 0 0 0 0 0 0 0 0 0 0 0 0 0 0 0 0 0 0 0 0 0 0 0 0 0 0 0 0 0 0
0 0 0 0 0 0 0 0 0 0 0 0 0 0 0 0 0 0 0 0 0 0 0 0 0 0 0 0 0 0 0 0 0 0 0 0 0 0 0 0 0 0 0 0 0
0 0 0 0 0 0 0 0 0 0 0 0 0 0 0 0 0 0 0 0 0 0 0 0 0 0 0 0 0 0 0 0 0 0 0 0 0 0 0 0 0 0 0 0 0
0 0 0 0 0 0 0 0 0 0 0 0 0 0 0 0 0 0 0 0 0 0 0 0 0 0 0 0 0 0 0 0 0 0 0 0 0 0 0 0 0 0 0 0 0
0 0 0 0 0 0 0 0 0 0 0 0 0 0 0 0 0 0 0 0 0 0 0 0 0 0 0 0 0 0 0 0 0 0 0 0 0 0 0 0 0 0 0 1 2
CIN
0 0 0 0 0 0 0 0 0 0 0 0 0 0 0 0 0 0 0 0 0 0 0 0 0 0 0 0 0 0 0 0 0 0 0 0 0 -196 -273 -165 -148 -190 -198 -288 -525
0 0 0 0 0 0 0 0 0 0 0 0 0 0 0 0 0 0 0 0 0 0 0 0 0 0 0 0 0 0 0 0 0 0 0 0 0 -160 -111 -111 -95 -131 -301 -350 -394
0 0 0 0 0 0 0 0 0 0 0 0 0 0 0 0 0 0 0 0 0 0 0 0 0 0 0 0 0 0 0 0 0 0 0 0 0 -1 -26 -5 0 -179 -260 -280 -293
0 0 0 0 0 -1 0 0 0 0 0 0 0 0 0 0 0 0 0 0 0 0 0 0 0 0 0 0 0 0 0 0 0 0 0 0 0 0 0 -287 -196 -249 -284 -282 -229
0 0 0 0 0 0 0 0 0 0 0 0 0 0 0 0 0 0 0 0 0 0 0 0 0 0 0 0 0 0 0 0 0 0 0 0 0 0 0 0 0 0 0 0 0
0 0 0 0 0 0 0 0 0 0 0 0 0 0 0 0 0 0 0 0 0 0 0 0 0 0 0 0 0 0 0 0 0 0 0 0 0 0 0 0 0 0 0 0 0
0 0 0 0 0 0 0 0 0 0 0 0 0 0 0 0 0 0 0 0 0 0 0 0 0 0 0 0 0 0 0 0 0 0 0 0 0 0 0 0 0 0 0 0 0
0 0 0 0 0 0 0 0 0 0 0 0 0 0 0 0 0 0 0 0 0 0 0 0 0 0 0 0 0 0 0 0 0 0 0 0 0 0 0 0 0 0 0 0 0
0 0 0 0 0 0 0 0 0 0 0 0 0 0 0 0 0 0 0 0 0 0 0 0 0 0 0 0 0 0 0 0 0 0 0 0 0 0 0 0 0 0 0 0 0
0 0 0 0 0 0 0 0 0 0 0 0 0 0 0 0 0 0 0 0 0 0 0 0 0 0 0 0 0 0 0 0 0 0 0 0 0 0 0 0 0 0 0 0 0
0 0 0 0 0 0 0 0 0 0 0 0 0 0 0 0 0 0 0 0 0 0 0 0 0 0 0 0 0 0 0 0 0 0 0 0 0 0 0 0 0 0 0 0 0
0 0 0 0 0 0 0 0 0 0 0 0 0 0 0 0 0 0 0 0 0 0 0 0 0 0 0 0 0 0 0 0 0 0 0 0 0 0 0 0 0 0 0 0 0
0 0 0 0 0 0 0 0 0 0 0 0 0 0 0 0 0 0 0 0 0 0 0 0 0 0 0 0 0 0 0 0 0 0 0 0 0 0 0 0 0 0 0 0 0
0 0 0 0 0 0 0 0 0 0 0 0 0 0 0 0 0 0 0 0 0 0 0 0 0 0 0 0 0 0 0 0 0 0 0 0 0 0 0 0 0 0 0 0 0
0 0 0 0 0 0 0 0 0 0 0 0 0 0 0 0 0 0 0 0 0 0 0 0 0 0 0 0 0 0 0 0 0 0 0 0 0 0 0 0 0 0 0 0 0
0 0 0 0 0 0 0 0 0 0 0 0 0 0 0 0 0 0 0 0 0 0 0 0 0 0 0 0 0 0 0 0 0 0 0 0 0 0 0 0 0 0 0 0 0
0 0 0 0 0 0 0 0 0 0 0 0 0 0 0 0 0 0 0 0 0 0 0 0 0 0 0 0 0 0 0 0 0 0 0 0 0 0 0 0 0 0 0 0 0
0 0 0 0 0 0 0 0 0 0 0 0 0 0 0 0 0 0 0 0 0 0 0 0 0 0 0 0 0 0 0 0 0 0 0 0 0 0 0 0 0 0 0 0 0
0 0 0 0 0 0 0 0 0 0 0 0 0 0 0 0 0 0 0 0 0 0 0 0 0 0 0 0 0 0 0 0 -5 0 -5 0 0 0 0 0 0 0 0 0 0
0 0 0 0 0 0 0 0 0 0 0 0 0 0 0 0 0 0 0 0 0 0 0 0 0 0 0 0 0 0 0 0 0 -18 -14 0 0 0 0 0 0 0 0 0 0
0 0 0 0 0 0 0 0 0 0 0 0 0 0 0 0 0 0 0 0 0 0 0 0 0 0 0 0 0 0 0 0 0 0 -14 -9 0 0 0 0 0 0 0 0 0
0 0 0 0 0 0 0 0 0 0 0 0 0 0 0 0 0 0 0 0 0 0 0 0 0 0 0 0 0 0 0 0 0 -1 0 0 0 0 0 0 0 0 0 0 0
0 0 0 0 0 0 0 0 0 0 0 0 0 0 0 0 0 0 0 0 0 0 0 0 0 0 0 0 0 0 0 0 0 0 0 0 0 0 0 0 0 0 0 0 0
0 0 0 0 0 0 0 0 0 0 0 0 0 0 0 0 0 0 0 0 0 0 0 0 0 0 0 0 0 0 0 0 0 0 0 0 0 0 0 0 0 0 0 0 0
0 0 0 0 0 0 0 0 0 0 0 0 0 0 0 0 0 0 0 0 0 0 0 0 0 0 0 0 0 0 0 0 0 0 0 0 0 0 0 0 0 0 0 0 0
0 0 0 0 0 0 0 0 0 0 0 0 0 0 0 0 0 0 0 0 0 0 0 0 0 0 0 0 0 0 0 0 0 0 0 0 0 0 0 0 0 0 0 0 0
0 0 0 0 0 0 0 0 0 0 0 0 0 0 0 0 0 0 0 0 0 0 0 0 0 0 0 0 0 0 0 0 0 0 0 0 0 0 0 0 0 0 0 0 0
Wind_Speed
9 9 9 9 9 9 9 9 8 7 6 7 7 7 8 8 7 1 6 6 5 3 7 2 3 4 2 3 2 2 3 6 1 1 5 10 8 2 2 4 2 2 1 5 17
9 10 9 9 8 9 9 9 8 7 6 7 7 7 7 7 2 8 8 5 6 9 5 7 5 4 4 2 2 4 6 6 2 1 7 10 5 7 4 4 7 4 17 17 14
10 9 9 9 9 8 9 9 8 7 6 6 7 6 6 5 4 4 5 11 9 7 4 3 6 3 3 2 3 4 10 7 3 7 9 9 13 29 22 15 17 13 16 15 15
10 9 9 9 9 8 8 8 7 6 6 6 6 5 5 2 2 2 7 13 12 2 5 6 5 5 5 7 4 6 5 9 9 4 6 11 8 31 30 15 18 22 22 21 20
10 10 9 9 9 9 8 8 6 5 5 5 5 5 2 2 7 2 7 14 11 7 5 5 5 5 6 5 6 6 5 7 8 14 23 26 25 30 29 21 23 26 30 27 23
10 10 9 9 9 9 8 8 6 4 4 4 4 4 3 4 2 2 10 10 10 5 5 6 6 4 5 4 4 8 6 8 15 16 16 27 19 22 23 19 27 28 29 27 27
11 10 10 9 9 9 8 7 5 3 4 3 3 2 2 9 5 5 7 2 8 4 5 3 4 2 5 4 1 3 5 5 24 7 2 5 31 21 17 18 25 26 26 27 27
10 10 9 9 8 9 9 4 1 2 3 3 2 1 7 1 4 3 5 4 4 2 0 2 4 4 1 3 2 3 3 8 17 7 9 8 10 16 16 17 22 23 22 23 27
11 10 8 7 7 8 6 2 1 2 2 2 2 1 6 0 4 5 8 4 7 3 2 5 1 3 3 4 3 1 5 3 6 19 5 8 13 13 15 17 19 19 20 20 22
11 10 9 6 6 6 2 1 2 2 2 3 2 3 5 2 2 5 4 6 4 9 5 2 3 2 2 5 8 6 8 10 10 15 28 25 20 14 15 17 18 18 18 19 20
11 9 7 5 5 4 3 3 3 3 2 6 1 3 3 5 2 4 5 7 3 2 4 2 5 7 8 7 3 9 10 18 18 8 19 19 19 15 14 18 19 19 19 19 19
12 8 6 5 6 2 2 2 0 3 6 8 9 7 6 3 2 3 10 7 5 5 5 4 7 6 4 5 11 13 24 16 10 14 17 16 18 14 15 17 17 17 18 20 20
11 7 3 4 4 2 3 4 4 0 4 4 4 4 3 8 4 6 11 5 5 6 7 5 3 8 6 9 15 15 17 18 14 9 17 20 10 7 10 14 15 17 16 18 20
10 6 2 3 2 2 4 1 5 5 3 2 3 3 6 4 2 1 5 5 3 8 7 5 2 6 6 8 15 12 16 21 26 13 8 17 6 4 3 11 16 17 18 18 19
9 5 4 5 2 3 3 7 4 3 3 2 3 2 1 5 7 3 3 2 8 6 5 3 5 5 6 3 16 4 28 26 23 9 12 10 5 6 1 4 13 15 16 16 17
7 3 7 3 2 4 7 1 3 2 2 2 4 5 6 3 3 3 2 6 2 4 1 3 1 2 1 2 8 17 21 10 13 2 7 3 6 6 4 3 9 12 13 15 16
7 4 6 1 1 4 3 2 2 3 4 4 1 4 6 4 4 3 3 4 2 4 1 0 1 3 3 4 10 9 18 6 6 7 4 4 5 7 8 5 8 10 12 13 14
3 7 4 5 1 6 2 2 2 2 3 3 3 2 8 4 3 3 5 5 2 1 3 3 5 5 7 3 2 14 8 6 9 7 5 0 4 7 8 5 6 7 9 12 14
7 1 2 2 4 3 1 2 3 2 4 7 5 3 4 2 3 3 1 5 2 1 4 5 3 1 4 5 4 3 5 3 4 3 5 6 3 5 7 2 6 8 8 10 11
0 0 2 4 5 1 2 2 2 2 5 3 3 3 3 1 4 5 6 2 3 1 2 4 4 3 2 1 9 3 4 4 1 6 9 5 4 5 8 1 6 8 10 10 11
0 1 5 1 2 3 2 3 2 1 3 5 3 2 2 2 1 3 3 3 1 1 1 2 3 3 2 8 4 1 3 5 3 3 5 5 5 5 6 3 4 7 8 8 9
1 2 4 2 2 1 2 2 4 3 7 3 2 4 3 2 1 1 3 2 2 2 2 2 2 2 3 5 6 3 3 1 4 4 3 4 7 5 5 4 2 5 5 8 9
2 2 2 1 2 1 0 2 3 4 5 5 2 5 3 2 2 1 1 1 2 1 2 4 2 5 4 5 2 3 3 3 6 2 2 4 6 6 4 3 3 3 6 8 9
1 3 3 5 3 1 2 2 2 6 3 3 3 2 1 1 2 2 3 2 2 5 9 6 5 5 5 4 3 3 4 2 2 4 8 2 10 7 4 1 1 3 6 8 9
4 3 2 3 6 6 2 4 3 5 7 8 3 7 3 2 1 3 3 3 4 3 5 4 6 7 10 9 10 10 9 5 5 5 4 12 10 9 5 1 2 4 6 9 9
2 2 4 4 3 5 9 7 7 3 7 5 5 8 4 2 3 3 4 3 1 4 3 2 8 7 9 10 13 16 12 16 16 16 15 15 9 5 5 3 3 2 5 8 10
2 2 2 6 4 3 4 4 7 2 4 5 4 3 10 8 4 4 7 8 3 2 4 4 10 5 7 4 5 8 7 8 9 7 11 5 6 9 7 4 1 2 4 7 9
Wind_Direction
354 350 344 339 338 326 318 310 303 301 301 298 299 305 307 313 308 179 245 225 185 166 166 150 97 87 104 117 121 179 183 233 240 229 342 335 340 95 77 145 115 108 75 88 134
353 346 339 334 332 323 315 308 305 303 296 291 291 296 306 331 289 249 247 236 246 163 167 176 146 122 96 112 118 183 204 229 172 244 300 315 324 352 295 58 24 346 50 62 75
349 343 335 329 324 317 310 306 302 296 291 289 294 303 311 320 278 239 18 189 172 179 147 117 112 102 122 183 159 159 216 226 222 235 266 352 24 33 6 27 354 24 88 73 68
346 337 332 325 319 315 309 301 297 292 288 291 294 305 311 248 201 54 320 188 173 177 129 122 114 138 157 172 160 189 221 226 254 328 36 44 19 46 40 39 64 79 74 60 57
342 336 329 323 320 316 309 302 298 289 281 285 300 312 267 244 257 47 81 125 134 163 157 139 152 147 159 153 150 197 181 211 320 81 74 67 58 58 44 47 61 67 66 58 54
341 335 329 322 321 320 312 303 294 273 262 268 280 295 240 254 50 138 136 131 143 145 144 158 174 190 113 163 213 182 178 66 35 95 91 72 49 53 32 48 60 58 61 58 53
340 333 329 324 322 321 312 296 284 263 259 268 275 267 239 249 93 124 160 149 158 143 151 204 163 177 141 146 212 154 150 160 28 345 87 277 37 38 37 44 60 60 60 55 49
336 331 326 322 321 323 318 304 254 220 241 256 267 243 253 185 136 197 198 150 135 200 350 157 172 85 27 116 77 206 171 183 36 9 23 66 64 35 34 52 56 53 53 52 47
334 328 323 321 320 325 333 352 217 213 237 206 205 291 268 199 231 206 190 183 140 143 118 108 112 65 146 159 191 108 185 57 83 13 53 85 107 49 43 53 55 48 45 42 41
335 326 323 319 314 321 342 38 182 182 204 203 255 270 240 138 184 143 193 166 126 121 122 136 71 136 134 200 210 190 130 68 57 57 84 90 92 67 51 54 51 43 39 37 38
336 329 321 313 299 290 151 158 199 176 214 225 192 274 292 301 244 182 162 152 121 137 161 80 191 210 218 220 107 105 104 114 134 130 67 86 85 64 49 49 43 36 30 28 27
334 328 314 288 276 237 192 227 319 26 300 235 248 273 268 271 275 143 159 151 171 170 135 161 228 214 194 182 133 122 122 117 65 110 105 110 87 74 56 51 44 33 27 20 14
332 323 285 247 261 188 230 225 39 257 269 278 200 219 222 174 197 178 177 134 148 157 180 205 136 141 184 154 145 160 159 166 138 113 131 128 96 85 70 57 45 38 28 25 16
333 319 228 183 210 157 233 78 326 204 307 251 232 231 155 198 141 27 185 156 158 207 171 228 180 211 193 208 186 182 194 151 147 153 172 215 141 165 62 45 34 26 21 15 12
330 311 198 217 115 211 44 329 130 205 312 60 153 121 151 192 136 74 4 133 183 175 194 144 198 230 244 231 184 224 160 168 169 151 141 170 217 110 78 27 17 16 15 13 12
329 276 164 186 231 268 326 212 221 267 253 59 142 159 163 179 82 120 123 47 65 143 312 259 299 252 301 111 171 121 127 111 165 187 228 144 250 147 158 34 5 11 12 10 10
324 233 184 275 133 333 307 188 310 232 340 16 9 175 173 144 93 55 52 57 205 193 200 249 143 333 358 185 144 133 160 133 186 212 246 112 214 65 129 77 21 3 4 8 11
298 158 234 249 313 349 209 86 252 289 307 354 339 283 187 151 67 104 125 145 81 155 146 226 187 8 359 342 213 175 231 219 212 197 175 141 174 136 136 96 34 18 5 4 7
136 165 262 277 231 203 96 149 246 243 320 328 312 194 160 102 130 135 88 157 150 211 225 177 194 310 42 23 309 152 212 27 118 100 186 128 132 167 172 83 25 17 6 5 2
2 259 10 345 163 118 83 231 261 275 322 314 322 6 194 71 187 202 178 129 161 20 266 165 184 46 15 233 61 360 89 177 140 228 245 175 207 119 187 56 18 17 10 3 358
258 113 9 16 241 63 196 229 280 101 351 348 338 324 48 23 47 181 133 104 18 102 115 160 270 132 233 22 353 50 130 59 84 339 277 243 120 125 134 105 52 11 5 6 358
92 88 16 292 77 28 168 181 358 0 16 8 57 32 34 55 78 192 221 29 359 288 185 77 74 103 79 93 70 66 92 0 259 179 48 349 115 123 124 121 29 41 357 6 358
67 91 55 275 161 159 152 102 52 24 32 17 58 27 29 66 285 220 171 53 14 119 158 160 54 146 156 196 164 59 47 94 106 120 128 260 109 153 136 142 63 356 354 352 351
117 114 51 53 23 41 116 25 100 33 75 359 14 120 116 117 28 179 178 59 81 94 71 82 74 1 276 41 62 113 29 1 290 199 143 70 142 173 158 162 348 354 349 342 341
16 81 1 36 43 53 54 10 32 12 358 19 89 29 316 245 204 214 194 163 89 113 66 78 98 90 66 76 93 88 67 79 100 103 255 141 144 161 154 94 340 332 333 341 351
53 111 59 57 353 41 16 13 29 31 8 10 36 347 345 288 306 281 189 219 153 86 80 60 130 127 69 97 98 90 73 81 86 91 94 121 121 144 147 177 230 297 340 348 354
44 83 84 7 30 65 24 26 30 319 61 52 327 7 25 350 344 51 84 68 73 133 116 111 147 167 142 147 177 96 45 86 101 91 135 153 120 158 168 181 195 336 349 350 350